Weather History for Logansport, IN

Change the Weather History Date:

Friday, December 27, 2013

  Actual Average Record
Temperature  
Mean Temperature 34 °F -  
Max Temperature 42 °F 26 °F 42 °F (2013)
Min Temperature 26 °F 13 °F 26 °F (2012)
Degree Days  
Heating Degree Days 31    
Moisture  
Dew Point 28 °F    
Average Humidity 80    
Maximum Humidity 93    
Minimum Humidity 65    
Precipitation  
Precipitation 0.00 in - - ()
Sea Level Pressure  
Sea Level Pressure 30.27 in    
Wind  
Wind Speed 11 mph (SW)    
Max Wind Speed 17 mph    
Max Gust Speed 25 mph    
Visibility 10 miles    
Events      
Averages and records for this station are not official NWS values.
T = Trace of Precipitation, MM = Missing Value Source: NWS Daily Summary

Daily Weather History Graph

Daily Weather History Graph

Search for Another Location

Airport:

Trip Planner

Search our weather history database for the weather conditions in past years. The results will help you decide how hot, cold, wet, or windy it might be!

Date:

Astronomy

Dec. 27, 2013 Rise Set
Actual Time 8:08 AM EST 5:25 PM EST
Civil Twilight 7:37 AM EST 5:55 PM EST
Nautical Twilight 7:03 AM EST 6:30 PM EST
Astronomical Twilight 6:29 AM EST 7:03 PM EST
Moon 2:38 AM EST (12/27) 1:36 PM EST (12/27)
Length of Visible Light 10h 18m
Length of Day
9h 16m
Waning Crescent, 28% of the Moon is Illuminated
Dec 27
Waning Crescent
Jan 1
New
Jan 7
First Quarter
Jan 15
Full
Jan 24
Last Quarter

Hourly Weather History & Observations

Time (EST) Temp. Windchill Dew Point Humidity Pressure Visibility Wind Dir Wind Speed Gust Speed Precip Events Conditions
12:15 AM 32.0 °F 22.5 °F 24.8 °F 75% 30.26 in 10.0 mi SW 12.7 mph - N/A   Overcast
12:35 AM 32.0 °F 22.5 °F 26.6 °F 80% 30.26 in 10.0 mi SW 12.7 mph - N/A   Overcast
12:55 AM 32.0 °F 22.5 °F 26.6 °F 80% 30.26 in 10.0 mi SW 12.7 mph - N/A   Overcast
1:15 AM 32.0 °F 22.1 °F 26.6 °F 80% 30.25 in 10.0 mi SW 13.8 mph - N/A   Overcast
1:35 AM 32.0 °F 22.5 °F 26.6 °F 80% 30.26 in 10.0 mi SW 12.7 mph - N/A   Overcast
1:55 AM 32.0 °F 23.0 °F 26.6 °F 80% 30.26 in 10.0 mi SW 11.5 mph - N/A   Overcast
2:15 AM 32.0 °F 22.5 °F 24.8 °F 75% 30.26 in 10.0 mi SW 12.7 mph 18.4 mph N/A   Overcast
2:35 AM 32.0 °F 22.5 °F 24.8 °F 75% 30.26 in 10.0 mi SW 12.7 mph - N/A   Overcast
2:55 AM 32.0 °F 22.5 °F 24.8 °F 75% 30.26 in 10.0 mi SW 12.7 mph - N/A   Overcast
3:15 AM 32.0 °F 22.5 °F 24.8 °F 75% 30.26 in 10.0 mi SW 12.7 mph - N/A   Overcast
3:35 AM 32.0 °F 23.0 °F 24.8 °F 75% 30.27 in 10.0 mi SW 11.5 mph - N/A   Overcast
3:55 AM 32.0 °F 24.2 °F 26.6 °F 80% 30.27 in 10.0 mi SW 9.2 mph - N/A   Overcast
4:15 AM 32.0 °F 23.0 °F 26.6 °F 80% 30.27 in 10.0 mi SW 11.5 mph - N/A   Overcast
4:35 AM 32.0 °F 23.6 °F 26.6 °F 80% 30.27 in 10.0 mi SW 10.4 mph - N/A   Overcast
4:55 AM 32.0 °F 23.6 °F 26.6 °F 80% 30.27 in 10.0 mi SW 10.4 mph - N/A   Overcast
5:15 AM 30.2 °F 21.3 °F 24.8 °F 80% 30.27 in 10.0 mi SW 10.4 mph - N/A   Mostly Cloudy
5:35 AM 28.4 °F 20.4 °F 24.8 °F 86% 30.26 in 10.0 mi SW 8.1 mph - N/A   Scattered Clouds
5:55 AM 30.2 °F 21.9 °F 24.8 °F 80% 30.26 in 10.0 mi SSW 9.2 mph - N/A   Scattered Clouds
6:15 AM 30.2 °F 22.6 °F 24.8 °F 80% 30.26 in 10.0 mi SSW 8.1 mph - N/A   Clear
6:35 AM 28.4 °F 21.2 °F 24.8 °F 86% 30.27 in 10.0 mi SW 6.9 mph - N/A   Clear
6:55 AM 26.6 °F 19.1 °F 23.0 °F 86% 30.28 in 10.0 mi SW 6.9 mph - N/A   Clear
7:15 AM 26.6 °F 20.0 °F 23.0 °F 86% 30.29 in 10.0 mi WSW 5.8 mph - N/A   Clear
7:35 AM 26.6 °F 21.2 °F 23.0 °F 86% 30.30 in 10.0 mi SW 4.6 mph - N/A   Clear
7:55 AM 26.6 °F 20.0 °F 23.0 °F 86% 30.31 in 10.0 mi SSW 5.8 mph - N/A   Clear
8:15 AM 26.6 °F 21.2 °F 23.0 °F 86% 30.31 in 10.0 mi SW 4.6 mph - N/A   Clear
8:35 AM 26.6 °F 20.0 °F 23.0 °F 86% 30.32 in 10.0 mi SSW 5.8 mph - N/A   Scattered Clouds
8:55 AM 28.4 °F 21.2 °F 24.8 °F 86% 30.32 in 10.0 mi SSW 6.9 mph - N/A   Scattered Clouds
9:15 AM 28.4 °F 22.2 °F 26.6 °F 93% 30.33 in 10.0 mi SSW 5.8 mph - N/A   Scattered Clouds
9:35 AM 32.0 °F 24.8 °F 26.6 °F 80% 30.34 in 10.0 mi SSW 8.1 mph - N/A   Clear
9:55 AM 32.0 °F 24.2 °F 26.6 °F 80% 30.33 in 10.0 mi SSW 9.2 mph - N/A   Clear
10:15 AM 32.0 °F 23.6 °F 28.4 °F 87% 30.33 in 10.0 mi SSW 10.4 mph - N/A   Clear
10:35 AM 33.8 °F 26.4 °F 28.4 °F 81% 30.34 in 10.0 mi SW 9.2 mph - N/A   Clear
10:55 AM 33.8 °F 26.4 °F 28.4 °F 81% 30.34 in 10.0 mi SSW 9.2 mph - N/A   Clear
11:15 AM 35.6 °F 28.6 °F 28.4 °F 75% 30.34 in 10.0 mi SSW 9.2 mph - N/A   Clear
11:35 AM 35.6 °F 28.6 °F 28.4 °F 75% 30.33 in 10.0 mi SSW 9.2 mph - N/A   Clear
11:55 AM 35.6 °F 28.6 °F 28.4 °F 75% 30.33 in 10.0 mi SW 9.2 mph - N/A   Clear
12:15 PM 37.4 °F 30.8 °F 30.2 °F 75% 30.32 in 10.0 mi SW 9.2 mph - N/A   Clear
12:35 PM 37.4 °F 30.8 °F 30.2 °F 75% 30.31 in 10.0 mi SW 9.2 mph - N/A   Clear
12:55 PM 39.2 °F 32.5 °F 30.2 °F 70% 30.31 in 10.0 mi SW 10.4 mph - N/A   Clear
1:15 PM 41.0 °F 34.7 °F 30.2 °F 65% 30.30 in 10.0 mi SW 10.4 mph - N/A   Clear
1:35 PM 41.0 °F 34.3 °F 32.0 °F 70% 30.29 in 10.0 mi SW 11.5 mph - N/A   Clear
1:55 PM 41.0 °F 34.3 °F 32.0 °F 70% 30.28 in 10.0 mi SW 11.5 mph - N/A   Clear
2:15 PM 41.0 °F 33.9 °F 32.0 °F 70% 30.27 in 10.0 mi SW 12.7 mph - N/A   Clear
2:35 PM 42.8 °F 36.6 °F 32.0 °F 66% 30.27 in 10.0 mi SW 11.5 mph - N/A   Clear
2:55 PM 42.8 °F 36.2 °F 32.0 °F 66% 30.26 in 10.0 mi SW 12.7 mph - N/A   Clear
3:15 PM 42.8 °F 36.2 °F 32.0 °F 66% 30.26 in 10.0 mi SW 12.7 mph - N/A   Clear
3:35 PM 42.8 °F 36.2 °F 32.0 °F 66% 30.26 in 10.0 mi SW 12.7 mph - N/A   Clear
3:55 PM 41.0 °F 34.3 °F 32.0 °F 70% 30.25 in 10.0 mi SW 11.5 mph - N/A   Clear
4:15 PM 41.0 °F 35.2 °F 32.0 °F 70% 30.25 in 10.0 mi SW 9.2 mph - N/A   Clear
4:35 PM 39.2 °F 33.0 °F 32.0 °F 75% 30.25 in 10.0 mi SW 9.2 mph - N/A   Clear
4:55 PM 39.2 °F 32.5 °F 32.0 °F 75% 30.24 in 10.0 mi SSW 10.4 mph - N/A   Clear
5:15 PM 37.4 °F 30.3 °F 30.2 °F 75% 30.24 in 10.0 mi SSW 10.4 mph - N/A   Clear
5:35 PM 35.6 °F 28.6 °F 30.2 °F 81% 30.24 in 10.0 mi SSW 9.2 mph - N/A   Clear
5:55 PM 33.8 °F 26.4 °F 30.2 °F 87% 30.24 in 10.0 mi SSW 9.2 mph - N/A   Clear
6:15 PM 33.8 °F 26.4 °F 30.2 °F 87% 30.24 in 10.0 mi SSW 9.2 mph - N/A   Clear
6:35 PM 32.0 °F 24.8 °F 28.4 °F 87% 30.23 in 10.0 mi SSW 8.1 mph - N/A   Clear
6:55 PM 32.0 °F 24.2 °F 30.2 °F 93% 30.24 in 10.0 mi SSW 9.2 mph - N/A   Clear
7:15 PM 33.8 °F 25.8 °F 30.2 °F 87% 30.24 in 10.0 mi SSW 10.4 mph - N/A   Clear
7:35 PM 32.0 °F 23.6 °F 30.2 °F 93% 30.24 in 10.0 mi SSW 10.4 mph - N/A   Clear
7:55 PM 32.0 °F 23.6 °F 30.2 °F 93% 30.23 in 10.0 mi SSW 10.4 mph - N/A   Clear
8:15 PM 32.0 °F 23.6 °F 30.2 °F 93% 30.22 in 10.0 mi SSW 10.4 mph - N/A   Clear
8:35 PM 33.8 °F 24.8 °F 30.2 °F 87% 30.22 in 10.0 mi SSW 12.7 mph - N/A   Clear
8:55 PM 33.8 °F 24.3 °F 30.2 °F 87% 30.21 in 10.0 mi SSW 13.8 mph - N/A   Clear
9:15 PM 33.8 °F 23.5 °F 30.2 °F 87% 30.21 in 10.0 mi SSW 16.1 mph - N/A   Clear
9:35 PM 35.6 °F 25.9 °F 30.2 °F 81% 30.21 in 10.0 mi SSW 16.1 mph 20.7 mph N/A   Clear
9:55 PM 35.6 °F 25.5 °F 30.2 °F 81% 30.21 in 10.0 mi SSW 17.3 mph 24.2 mph N/A   Clear
10:15 PM 35.6 °F 25.5 °F 30.2 °F 81% 30.21 in 10.0 mi SSW 17.3 mph - N/A   Clear
10:35 PM 35.6 °F 25.5 °F 30.2 °F 81% 30.20 in 10.0 mi SSW 17.3 mph 25.3 mph N/A   Clear
10:55 PM 35.6 °F 26.6 °F 30.2 °F 81% 30.20 in 10.0 mi SW 13.8 mph - N/A   Clear
11:15 PM 35.6 °F 26.2 °F 30.2 °F 81% 30.19 in 10.0 mi SW 15.0 mph - N/A   Clear
11:35 PM 35.6 °F 25.5 °F 30.2 °F 81% 30.19 in 10.0 mi SW 17.3 mph 24.2 mph N/A   Clear
11:55 PM 35.6 °F 25.9 °F 30.2 °F 81% 30.18 in 10.0 mi SW 16.1 mph - N/A   Clear